When you browse on this site, cookies collect data to enhance your experience and personalize the content and advertising you see.
Visit our Privacy Policy to learn more. By continuing to use the site, you agree to this use of cookies and data.
  • In Romania
  • List of Countries
  • For 7 days
  • Water Temperature
  • Satellite Maps
  • Weather Map
  • Weather Widgets
  • user-avatar
    Login

    Hourly Weather Achstetten

    Today, 19 July, Friday

    Time Temperature Precipitation Wind Pressure Humidity
    00:00 +18°C° 0.3 mm 1 mps 716 mmHg 83%
    01:00 +16°C° 0 mm 1 mps 717 mmHg 85%
    02:00 +16°C° 0.3 mm 1 mps 716 mmHg 87%
    03:00 +16°C° 0.3 mm 2 mps 716 mmHg 89%
    04:00 +15°C° 0.3 mm 2 mps 716 mmHg 90%
    05:00 +16°C° 0.1 mm 2 mps 717 mmHg 90%
    06:00 +17°C° 0.1 mm 2 mps 717 mmHg 89%
    07:00 +18°C° 0 mm 2 mps 717 mmHg 87%
    08:00 +20°C° 0.4 mm 2 mps 717 mmHg 83%
    09:00 +21°C° 0.4 mm 3 mps 717 mmHg 79%
    10:00 +22°C° 0.4 mm 3 mps 717 mmHg 75%
    11:00 +24°C° 0.7 mm 3 mps 717 mmHg 73%
    12:00 +24°C° 0.7 mm 3 mps 717 mmHg 70%
    13:00 +25°C° 0 mm 2 mps 718 mmHg 66%
    14:00 +25°C° 0.3 mm 2 mps 718 mmHg 65%
    15:00 +25°C° 0.3 mm 2 mps 717 mmHg 64%
    16:00 +26°C° 0.3 mm 2 mps 717 mmHg 64%
    17:00 +25°C° 0.1 mm 1 mps 717 mmHg 69%
    18:00 +24°C° 0.1 mm 1 mps 717 mmHg 74%
    19:00 +23°C° 0.1 mm 1 mps 718 mmHg 79%
    20:00 +21°C° 0 mm 1 mps 718 mmHg 82%
    21:00 +20°C° 0 mm 1 mps 718 mmHg 85%
    22:00 +18°C° 0 mm 1 mps 717 mmHg 88%
    23:00 +18°C° 0 mm 1 mps 717 mmHg 89%

    Tomorrow, 20 July, Saturday

    Time Temperature Precipitation Wind Pressure Humidity
    00:00 +18°C° 0 mm 1 mps 717 mmHg 89%
    01:00 +16°C° 0 mm 1 mps 717 mmHg 90%
    02:00 +16°C° 0 mm 1 mps 717 mmHg 91%
    03:00 +15°C° 0 mm 1 mps 717 mmHg 91%
    04:00 +15°C° 0 mm 1 mps 717 mmHg 91%
    05:00 +16°C° 0 mm 1 mps 717 mmHg 89%
    06:00 +18°C° 0 mm 1 mps 717 mmHg 87%
    07:00 +20°C° 0 mm 1 mps 717 mmHg 85%
    08:00 +21°C° 0 mm 1 mps 717 mmHg 81%
    09:00 +23°C° 0 mm 2 mps 717 mmHg 76%
    10:00 +25°C° 0 mm 3 mps 717 mmHg 72%
    11:00 +26°C° 0.1 mm 3 mps 717 mmHg 69%
    12:00 +27°C° 0.1 mm 3 mps 718 mmHg 65%
    13:00 +28°C° 0.1 mm 3 mps 718 mmHg 62%
    14:00 +29°C° 0.1 mm 3 mps 718 mmHg 61%
    15:00 +29°C° 0.1 mm 3 mps 718 mmHg 61%
    16:00 +30°C° 0.1 mm 3 mps 718 mmHg 60%
    17:00 +28°C° 0 mm 3 mps 718 mmHg 65%
    18:00 +27°C° 0 mm 2 mps 718 mmHg 69%
    19:00 +25°C° 0 mm 2 mps 718 mmHg 74%
    20:00 +23°C° 0.5 mm 2 mps 718 mmHg 78%
    21:00 +21°C° 0.5 mm 2 mps 718 mmHg 81%
    22:00 +19°C° 0.5 mm 2 mps 719 mmHg 85%
    23:00 +19°C° 0.8 mm 2 mps 719 mmHg 86%

    Day after tomorrow, 21 July, Sunday

    Time Temperature Precipitation Wind Pressure Humidity
    00:00 +18°C° 0.8 mm 2 mps 719 mmHg 88%
    01:00 +18°C° 0.8 mm 2 mps 719 mmHg 89%
    02:00 +18°C° 0.9 mm 2 mps 719 mmHg 91%
    03:00 +17°C° 0.9 mm 2 mps 719 mmHg 93%
    04:00 +17°C° 0.9 mm 2 mps 719 mmHg 94%
    05:00 +18°C° 0.3 mm 2 mps 720 mmHg 93%
    06:00 +19°C° 0.3 mm 2 mps 720 mmHg 93%
    07:00 +19°C° 0.3 mm 2 mps 720 mmHg 92%
    08:00 +20°C° 0.8 mm 2 mps 721 mmHg 88%
    09:00 +22°C° 0.8 mm 3 mps 721 mmHg 84%
    10:00 +24°C° 0.8 mm 3 mps 722 mmHg 81%
    11:00 +24°C° 0.6 mm 3 mps 722 mmHg 79%
    12:00 +24°C° 0.6 mm 3 mps 722 mmHg 78%
    13:00 +25°C° 0.6 mm 3 mps 722 mmHg 77%
    14:00 +25°C° 0.3 mm 3 mps 722 mmHg 74%
    15:00 +25°C° 0.3 mm 2 mps 722 mmHg 71%
    16:00 +26°C° 0.3 mm 2 mps 723 mmHg 68%
    17:00 +25°C° 0.1 mm 1 mps 723 mmHg 72%
    18:00 +24°C° 0.1 mm 1 mps 723 mmHg 76%
    19:00 +23°C° 0.1 mm 1 mps 722 mmHg 80%
    20:00 +20°C° 0 mm 0 mps 723 mmHg 82%
    21:00 +18°C° 0 mm 0 mps 723 mmHg 84%
    22:00 +17°C° 0 mm 0 mps 723 mmHg 86%
    23:00 +17°C° 0 mm 0 mps 723 mmHg 87%

    22 July, Monday

    Time Temperature Precipitation Wind Pressure Humidity
    00:00 +16°C° 0 mm 0 mps 723 mmHg 88%
    01:00 +15°C° 0 mm 0 mps 723 mmHg 90%
    02:00 +15°C° 0 mm 0 mps 723 mmHg 90%
    03:00 +15°C° 0 mm 0 mps 723 mmHg 90%
    04:00 +15°C° 0 mm 0 mps 723 mmHg 91%
    05:00 +16°C° 0 mm 0 mps 723 mmHg 90%
    06:00 +17°C° 0 mm 0 mps 723 mmHg 89%
    07:00 +18°C° 0 mm 0 mps 723 mmHg 88%
    08:00 +21°C° 0 mm 1 mps 724 mmHg 84%
    09:00 +23°C° 0 mm 1 mps 724 mmHg 79%
    10:00 +24°C° 0 mm 1 mps 724 mmHg 75%
    11:00 +25°C° 0 mm 1 mps 724 mmHg 71%
    12:00 +26°C° 0 mm 1 mps 724 mmHg 67%
    13:00 +27°C° 0 mm 1 mps 724 mmHg 64%
    14:00 +27°C° 0 mm 1 mps 724 mmHg 63%
    15:00 +27°C° 0 mm 1 mps 723 mmHg 63%
    16:00 +27°C° 0 mm 2 mps 723 mmHg 62%
    17:00 +26°C° 0 mm 2 mps 723 mmHg 68%
    18:00 +25°C° 0 mm 2 mps 723 mmHg 73%
    19:00 +24°C° 0 mm 2 mps 723 mmHg 79%
    20:00 +21°C° 0 mm 2 mps 723 mmHg 82%
    21:00 +20°C° 0 mm 2 mps 723 mmHg 84%
    22:00 +18°C° 0 mm 2 mps 723 mmHg 87%
    23:00 +18°C° 0 mm 2 mps 723 mmHg 88%

    23 July, Tuesday

    Time Temperature Precipitation Wind Pressure Humidity
    00:00 +18°C° 0 mm 1 mps 723 mmHg 88%
    01:00 +16°C° 0 mm 1 mps 723 mmHg 88%
    02:00 +16°C° 0 mm 1 mps 722 mmHg 88%
    03:00 +16°C° 0 mm 1 mps 722 mmHg 88%
    04:00 +15°C° 0 mm 1 mps 722 mmHg 88%
    05:00 +16°C° 0 mm 2 mps 722 mmHg 86%
    06:00 +17°C° 0 mm 2 mps 722 mmHg 85%
    07:00 +18°C° 0 mm 2 mps 722 mmHg 83%
    08:00 +20°C° 0 mm 2 mps 722 mmHg 80%
    09:00 +21°C° 0 mm 3 mps 722 mmHg 76%
    10:00 +23°C° 0 mm 4 mps 722 mmHg 72%
    11:00 +25°C° 0 mm 4 mps 722 mmHg 70%
    12:00 +26°C° 0 mm 4 mps 722 mmHg 67%
    13:00 +27°C° 0 mm 4 mps 721 mmHg 65%
    14:00 +27°C° 0 mm 4 mps 721 mmHg 65%
    15:00 +27°C° 0 mm 4 mps 721 mmHg 66%
    16:00 +28°C° 0 mm 4 mps 721 mmHg 66%
    17:00 +27°C° 0 mm 4 mps 721 mmHg 71%
    18:00 +25°C° 0 mm 3 mps 721 mmHg 76%
    19:00 +24°C° 0 mm 3 mps 720 mmHg 81%
    20:00 +22°C° 0 mm 3 mps 720 mmHg 83%
    21:00 +21°C° 0 mm 2 mps 720 mmHg 85%
    22:00 +19°C° 0 mm 2 mps 720 mmHg 87%
    23:00 +19°C° 0 mm 2 mps 720 mmHg 88%

    24 July, Wednesday

    Time Temperature Precipitation Wind Pressure Humidity
    00:00 +18°C° 0 mm 2 mps 720 mmHg 89%
    01:00 +18°C° 0 mm 1 mps 720 mmHg 89%
    02:00 +18°C° 0 mm 1 mps 720 mmHg 90%
    03:00 +18°C° 0 mm 1 mps 719 mmHg 91%
    04:00 +16°C° 0 mm 2 mps 719 mmHg 92%
    05:00 +18°C° 0 mm 1 mps 719 mmHg 90%
    06:00 +19°C° 0 mm 1 mps 720 mmHg 89%
    07:00 +20°C° 0 mm 1 mps 720 mmHg 87%
    08:00 +22°C° 0 mm 1 mps 720 mmHg 83%
    09:00 +24°C° 0 mm 1 mps 720 mmHg 78%
    10:00 +26°C° 0 mm 1 mps 720 mmHg 74%
    11:00 +27°C° 0 mm 1 mps 720 mmHg 69%
    12:00 +28°C° 0 mm 1 mps 720 mmHg 65%
    13:00 +29°C° 0 mm 1 mps 720 mmHg 60%
    14:00 +30°C° 0 mm 1 mps 720 mmHg 60%
    15:00 +30°C° 0 mm 1 mps 719 mmHg 60%
    16:00 +30°C° 0 mm 1 mps 719 mmHg 59%
    17:00 +29°C° 0 mm 1 mps 719 mmHg 66%
    18:00 +28°C° 0 mm 2 mps 719 mmHg 72%
    19:00 +26°C° 0 mm 2 mps 719 mmHg 79%
    20:00 +25°C° 0 mm 1 mps 719 mmHg 82%
    21:00 +23°C° 0 mm 1 mps 719 mmHg 86%
    22:00 +22°C° 0 mm 1 mps 719 mmHg 89%
    23:00 +22°C° 0 mm 1 mps 719 mmHg 89%
    Show more